071  
SXUS52 KCHS 211327  
OSOCHS  
 
MARINE OBSERVATIONS  
NATIONAL WEATHER SERVICE CHARLESTON SC  
900 AM EDT SAT OCT 21 2017  
   
..DOWNTOWN CHARLESTON AND HARBOR
 
 
 
CITY SKY/WX TMP DP RH WIND PRES REMARKS  
WATERFRONT PRK NOT AVBL  
   
..LAKE MOULTRIE
 
 
 
CITY SKY/WX TMP DP RH WIND PRES REMARKS  
PINOPOLIS N/A 64 61 88 NE6 30.20R  
   
..LAKE AND SUPPLEMENTAL COASTAL OBSERVATIONS
 
 
 
STATION/POSITION TIME TEMP WIND PRES WAVE SWELL  
AIR SEA DIR/SP/G HT/PER HT/PER/DIR  
(UTC) (F) (DEG/KT/KT) (MB) (FT/S) (FT/S/D)  
FORT PULASKI 1300 70 73 40/ 9/ 11 1025.2  
SAPELO ISLAND NOT AVBL  
WINYAH BAY 1245 63 350/ 6 1026.0R  
LAKE MURRAY 1220 58 CALM 1025.4  
ACE BASIN NERRS 1245 60 360/ 1 1025.0S  
 
   
..C-MAN AND BUOY OBSERVATIONS
 
 
 
STATION/POSITION TIME TEMP WIND PRES WAVE SWELL  
AIR SEA DIR/SP/G HT/PER HT/PER/DIR  
(UTC) (F) (DEG/KT/KT) (MB) (FT/S) (FT/S/D)  
BUOY 41004 1310 76 81 30/ 14/ 17 1024.4  
BUOY 41008 1250 76 77 50/ 16/ 17 1023.2R 3/ 8 2/130/ 8  
FOLLY BEACH CMAN 1300 69 360/ 6/ 8 1026.0R  
CAPERS NS BUOY 1308 69 73 30/ 10/ 16 1025.2R  
FRIPP NS BUOY 1308 72 30/ 12/ 14 N/A  
5E ST. MARYS GA 1300 77 N/A 4/ 6  
 
 
STATION/POSITION TIME TEMP WIND PRES WAVE SWELL  
AIR SEA DIR/SP/G HT/PER HT/PER/DIR  
(UTC) (F) (DEG/KT/KT) (MB) (FT/S) (FT/S/D)  
FRYING PAN BUOY 1310 74 50/ 10/ 12 1025.5  
BUOY 41025 1250 72 80 350/ 14/ 16 1025.7R 3/ 8 2/150/ 8  
CAPE LOOKOUT NC 1300 67 10/ 9/ 11 1026.3R  
BUOY 41002 1250 77 80 80/ 10/ 14 1024.0R 4/ 8 3/ 80/ 8  
BUOY 41010 NOT AVBL  
ST AUGUSTINE FL 1300 79 77 80/ 15/ 16 1022.5R  
 

 
 
 
CLICK HERE TO GO TO PREVIOUS BULLETINS.

The Nexlab SC Page
The Nexlab GA Page Main Text Page